Powrót do katalogu

STARLINK-34091

AktywnyŁącznośćVLEO
NORAD 63808·PAYLOAD·🇺🇸 United States

Wystrzelony May 4, 2025 z Cape Canaveral Space Force Station

Loading…

Następne Przeloty (najbliższe 24 godziny)

TLE

ŚwieżeSource: CelesTrak SupGP

Epoka: Sep 15, 2026, 02:38 UTC

1 63808C 25092E   26258.11020833 -.00003412  00000+0 -12368-3 0  2586
2 63808  43.0031 182.9213 0001400 270.8793  54.7522 15.27550763    12

Śledź STARLINK-34091 w czasie rzeczywistym z AllMySat

Download on the App Store